�������l�o���
Date,Time,MP-1(��Sv/h),MP-2(��Sv/h),MP-3(��Sv/h),MP-4(��Sv/h),MP-5(��Sv/h),MP-6(��Sv/h),MP-7(��Sv/h),����,����(m/s),���J
2015/07/30,00:00,0.511,0.298,0.535,0.495,0.472,0.239,0.210,�k��,1.3,��
2015/07/30,00:10,0.512,0.297,0.535,0.489,0.471,0.240,0.209,���k��,1.1,��
2015/07/30,00:20,0.504,0.296,0.541,0.487,0.465,0.239,0.210,��,1.8,��
2015/07/30,00:30,0.510,0.299,0.537,0.494,0.472,0.239,0.209,�쓌,1.2,��
2015/07/30,00:40,0.510,0.296,0.533,0.492,0.470,0.240,0.208,��,2.1,��
2015/07/30,00:50,0.505,0.296,0.542,0.484,0.466,0.240,0.209,��쐼,1.7,��
2015/07/30,01:00,0.508,0.299,0.537,0.492,0.468,0.239,0.209,�쐼,1.2,��
2015/07/30,01:10,0.510,0.296,0.533,0.491,0.471,0.239,0.209,���쐼,0.7,��
2015/07/30,01:20,0.506,0.296,0.537,0.486,0.465,0.238,0.210,�쐼,0.9,��
2015/07/30,01:30,0.504,0.299,0.539,0.489,0.464,0.238,0.208,�쐼,1.0,��
2015/07/30,01:40,0.513,0.297,0.534,0.491,0.471,0.238,0.208,��쐼,1.0,��
2015/07/30,01:50,0.509,0.294,0.536,0.489,0.467,0.237,0.211,���쐼,1.1,��
2015/07/30,02:00,0.503,0.299,0.540,0.486,0.462,0.238,0.210,�k��,1.4,��
2015/07/30,02:10,0.511,0.297,0.535,0.490,0.471,0.239,0.208,�k�k��,1.0,��
2015/07/30,02:20,0.509,0.294,0.536,0.489,0.471,0.237,0.209,�k�k��,1.1,��
2015/07/30,02:30,0.504,0.298,0.540,0.486,0.464,0.238,0.209,�k�k��,2.2,��
2015/07/30,02:40,0.511,0.296,0.534,0.494,0.469,0.239,0.207,�k�k��,2.2,��
2015/07/30,02:50,0.513,0.296,0.534,0.490,0.469,0.238,0.209,�k,2.3,��
2015/07/30,03:00,0.505,0.298,0.541,0.484,0.465,0.238,0.209,�k,2.7,��
2015/07/30,03:10,0.506,0.297,0.538,0.494,0.471,0.239,0.208,�k,2.6,��
2015/07/30,03:20,0.512,0.295,0.533,0.493,0.471,0.239,0.210,�k,2.7,��
2015/07/30,03:30,0.509,0.297,0.539,0.487,0.463,0.239,0.210,�k,2.2,��
2015/07/30,03:40,0.504,0.296,0.538,0.490,0.468,0.240,0.208,�k,0.9,��
2015/07/30,03:50,0.512,0.296,0.534,0.494,0.469,0.238,0.210,�k��,1.3,��
2015/07/30,04:00,0.509,0.298,0.537,0.488,0.466,0.240,0.209,�k�k��,2.1,��
2015/07/30,04:10,0.505,0.299,0.539,0.488,0.469,0.238,0.208,�k�k��,1.9,��
2015/07/30,04:20,0.512,0.295,0.533,0.495,0.470,0.238,0.210,�k�k��,2.2,��
2015/07/30,04:30,0.511,0.297,0.538,0.488,0.466,0.239,0.210,�k,2.4,��
2015/07/30,04:40,0.505,0.298,0.539,0.489,0.471,0.240,0.210,�k,2.2,��
2015/07/30,04:50,0.510,0.295,0.534,0.494,0.470,0.239,0.211,�k,3.1,��
2015/07/30,05:00,0.510,0.298,0.537,0.488,0.467,0.239,0.209,�k,3.1,��
2015/07/30,05:10,0.507,0.296,0.540,0.488,0.470,0.238,0.210,�k,3.2,��
2015/07/30,05:20,0.510,0.297,0.534,0.494,0.471,0.238,0.210,�k,3.4,��
2015/07/30,05:30,0.512,0.299,0.537,0.490,0.465,0.241,0.209,�k�k��,2.8,��
2015/07/30,05:40,0.506,0.299,0.541,0.486,0.471,0.240,0.210,�k,3.9,��
2015/07/30,05:50,0.508,0.295,0.537,0.494,0.470,0.239,0.211,�k,1.7,��
2015/07/30,06:00,0.511,0.297,0.534,0.492,0.466,0.240,0.208,�k,2.5,��
2015/07/30,06:10,0.505,0.298,0.544,0.485,0.466,0.238,0.208,�k,2.4,��
2015/07/30,06:20,0.507,0.296,0.536,0.492,0.471,0.239,0.210,�k,2.8,��
2015/07/30,06:30,0.511,0.297,0.532,0.492,0.470,0.239,0.210,�k,2.8,��
2015/07/30,06:40,0.508,0.298,0.538,0.488,0.467,0.238,0.210,�k�k��,2.5,��
2015/07/30,06:50,0.505,0.298,0.537,0.487,0.465,0.239,0.208,�k�k��,2.5,��
2015/07/30,07:00,0.512,0.293,0.534,0.492,0.470,0.239,0.209,�k�k��,2.7,��
2015/07/30,07:10,0.509,0.298,0.535,0.490,0.470,0.238,0.210,�k�k��,3.3,��
2015/07/30,07:20,0.504,0.298,0.541,0.485,0.465,0.238,0.209,�k�k��,1.6,��
2015/07/30,07:30,0.509,0.296,0.536,0.484,0.463,0.238,0.208,�k�k��,1.1,��
2015/07/30,07:40,0.511,0.295,0.530,0.492,0.469,0.239,0.210,�k�k��,1.4,��
2015/07/30,07:50,0.507,0.298,0.534,0.491,0.471,0.238,0.210,�k�k��,1.2,��
2015/07/30,08:00,0.504,0.296,0.538,0.485,0.467,0.238,0.208,�k�k��,1.9,��
2015/07/30,08:10,0.511,0.292,0.535,0.485,0.463,0.239,0.209,�k�k��,2.9,��
2015/07/30,08:20,0.509,0.297,0.529,0.490,0.470,0.238,0.211,�k��,2.8,��
2015/07/30,08:30,0.507,0.297,0.536,0.491,0.472,0.239,0.209,�k��,1.9,��
2015/07/30,08:40,0.504,0.296,0.536,0.486,0.465,0.239,0.207,�k��,2.2,��
2015/07/30,08:50,0.512,0.293,0.533,0.483,0.465,0.238,0.208,�k�k��,1.3,��
2015/07/30,09:00,0.508,0.296,0.531,0.491,0.462,0.239,0.209,�k��,0.9,��
2015/07/30,09:10,0.504,0.298,0.536,0.490,0.469,0.237,0.208,-,CALM,��
2015/07/30,09:20,0.503,0.297,0.537,0.487,0.468,0.237,0.206,-,CALM,��
2015/07/30,09:30,0.511,0.294,0.534,0.485,0.465,0.238,0.208,-,CALM,��
2015/07/30,09:40,0.509,0.293,0.531,0.484,0.463,0.239,0.209,-,CALM,��
2015/07/30,09:50,0.504,0.296,0.529,0.491,0.461,0.238,0.210,�k�k��,0.9,��
2015/07/30,10:00,0.500,0.298,0.538,0.492,0.467,0.237,0.208,�k�k��,1.3,��
2015/07/30,10:10,0.505,0.298,0.535,0.487,0.470,0.238,0.207,��,0.7,��
2015/07/30,10:20,0.510,0.295,0.533,0.484,0.468,0.239,0.208,��,1.5,��
2015/07/30,10:30,0.510,0.293,0.532,0.484,0.465,0.239,0.208,�k��,1.7,��
2015/07/30,10:40,0.506,0.295,0.529,0.482,0.465,0.239,0.207,���k��,1.2,��
2015/07/30,10:50,0.503,0.295,0.531,0.482,0.463,0.238,0.207,���쓌,0.5,��
2015/07/30,11:00,0.503,0.295,0.529,0.483,0.466,0.239,0.208,���쓌,0.7,��
2015/07/30,11:10,0.503,0.295,0.532,0.485,0.466,0.238,0.207,�k��,1.5,��
2015/07/30,11:20,0.504,0.295,0.533,0.487,0.467,0.238,0.208,�k��,1.6,��
2015/07/30,11:30,0.504,0.295,0.533,0.486,0.467,0.238,0.209,���k��,1.5,��
2015/07/30,11:40,0.506,0.296,0.533,0.487,0.467,0.238,0.208,��,1.6,��
2015/07/30,11:50,0.503,0.295,0.533,0.487,0.465,0.237,0.209,���k��,1.2,��
2015/07/30,12:00,0.506,0.296,0.535,0.485,0.468,0.238,0.208,���k��,2.0,��
2015/07/30,12:10,0.503,0.296,0.534,0.488,0.469,0.239,0.209,���k��,1.4,��
2015/07/30,12:20,0.506,0.297,0.533,0.489,0.468,0.238,0.209,���k��,1.4,��
2015/07/30,12:30,0.506,0.296,0.536,0.488,0.467,0.240,0.208,��,1.9,��
2015/07/30,12:40,0.505,0.297,0.535,0.488,0.467,0.238,0.209,��,1.6,��
2015/07/30,12:50,0.506,0.296,0.537,0.488,0.467,0.238,0.210,��,1.8,��
2015/07/30,13:00,0.506,0.297,0.535,0.489,0.470,0.238,0.208,��,1.5,��
2015/07/30,13:10,0.505,0.297,0.537,0.488,0.470,0.238,0.209,�쓌,1.1,��
2015/07/30,13:20,0.507,0.296,0.537,0.489,0.469,0.238,0.210,�쓌,1.0,��
2015/07/30,13:30,0.505,0.296,0.535,0.489,0.467,0.239,0.210,��쓌,1.0,��
2015/07/30,13:40,0.506,0.294,0.533,0.487,0.466,0.239,0.208,��쐼,1.7,�L
2015/07/30,13:50,0.506,0.295,0.534,0.486,0.464,0.239,0.209,��,2.3,��
2015/07/30,14:00,0.515,0.294,0.531,0.485,0.463,0.239,0.207,��,2.8,��
2015/07/30,14:10,0.513,0.293,0.530,0.486,0.462,0.240,0.207,��,3.1,�L
2015/07/30,14:20,0.509,0.296,0.541,0.493,0.462,0.239,0.210,��,2.8,�L
2015/07/30,14:30,0.507,0.299,0.540,0.494,0.462,0.240,0.212,��,2.5,�L
2015/07/30,14:40,0.511,0.299,0.537,0.491,0.462,0.239,0.210,��,2.3,�L
2015/07/30,14:50,0.516,0.298,0.534,0.488,0.469,0.241,0.210,��쐼,1.4,�L
2015/07/30,15:00,0.514,0.299,0.539,0.496,0.471,0.242,0.209,��,0.9,�L
2015/07/30,15:10,0.509,0.299,0.541,0.496,0.471,0.240,0.208,�쐼,2.0,��
2015/07/30,15:20,0.505,0.301,0.540,0.491,0.468,0.240,0.208,��,1.6,��
2015/07/30,15:30,0.505,0.300,0.538,0.491,0.469,0.240,0.208,��쓌,2.9,��
2015/07/30,15:40,0.507,0.298,0.534,0.487,0.467,0.239,0.208,��쓌,3.1,��
2015/07/30,15:50,0.511,0.296,0.536,0.485,0.465,0.239,0.210,��,3.1,��
2015/07/30,16:00,0.512,0.296,0.532,0.486,0.464,0.240,0.210,��,3.2,��
2015/07/30,16:10,0.509,0.295,0.532,0.493,0.466,0.239,0.209,��쓌,3.1,��
2015/07/30,16:20,0.505,0.295,0.533,0.491,0.463,0.239,0.209,��,3.7,��
2015/07/30,16:30,0.503,0.298,0.542,0.490,0.464,0.239,0.208,��,4.0,��
2015/07/30,16:40,0.509,0.299,0.537,0.486,0.463,0.241,0.210,��,3.6,��
2015/07/30,16:50,0.513,0.298,0.537,0.489,0.464,0.239,0.209,��,4.0,��
2015/07/30,17:00,0.510,0.296,0.536,0.494,0.465,0.239,0.209,��,4.5,��
2015/07/30,17:10,0.508,0.295,0.533,0.492,0.468,0.238,0.209,��,4.0,��
2015/07/30,17:20,0.505,0.299,0.540,0.487,0.470,0.240,0.210,��,4.2,��
2015/07/30,17:30,0.512,0.298,0.537,0.485,0.469,0.239,0.210,��,4.7,��
2015/07/30,17:40,0.513,0.296,0.535,0.493,0.466,0.239,0.209,��,4.9,��
2015/07/30,17:50,0.510,0.295,0.534,0.494,0.465,0.238,0.208,��,4.3,��
2015/07/30,18:00,0.506,0.296,0.542,0.489,0.471,0.239,0.210,��쐼,4.2,��
2015/07/30,18:10,0.514,0.297,0.538,0.485,0.468,0.239,0.209,��,3.5,��
2015/07/30,18:20,0.510,0.297,0.535,0.492,0.464,0.238,0.208,��쐼,3.5,��
2015/07/30,18:30,0.504,0.294,0.534,0.493,0.466,0.238,0.209,��,3.9,��
2015/07/30,18:40,0.506,0.299,0.542,0.487,0.472,0.239,0.211,��,4.4,��
2015/07/30,18:50,0.513,0.299,0.538,0.488,0.468,0.239,0.208,��,3.8,��
2015/07/30,19:00,0.509,0.296,0.533,0.496,0.462,0.239,0.208,��쐼,3.6,��
2015/07/30,19:10,0.505,0.296,0.538,0.492,0.469,0.240,0.210,��,3.1,��
2015/07/30,19:20,0.511,0.299,0.539,0.488,0.471,0.239,0.209,��,3.0,��
2015/07/30,19:30,0.513,0.296,0.536,0.490,0.467,0.239,0.207,��,3.3,��
2015/07/30,19:40,0.507,0.295,0.534,0.494,0.464,0.239,0.210,��,4.5,��
2015/07/30,19:50,0.507,0.298,0.543,0.489,0.471,0.239,0.209,��,4.5,��
2015/07/30,20:00,0.512,0.298,0.539,0.486,0.468,0.239,0.209,��,4.4,��
2015/07/30,20:10,0.510,0.295,0.536,0.494,0.462,0.239,0.210,��,4.2,��
2015/07/30,20:20,0.504,0.299,0.538,0.492,0.471,0.241,0.209,��,4.1,��
2015/07/30,20:30,0.513,0.298,0.541,0.487,0.470,0.239,0.208,��,3.9,��
2015/07/30,20:40,0.513,0.296,0.536,0.492,0.465,0.239,0.210,��,4.2,��
2015/07/30,20:50,0.509,0.297,0.533,0.493,0.465,0.241,0.211,��,4.5,��
2015/07/30,21:00,0.507,0.298,0.539,0.490,0.470,0.239,0.208,��,4.4,��
2015/07/30,21:10,0.513,0.296,0.538,0.486,0.468,0.239,0.209,��,4.5,��
2015/07/30,21:20,0.511,0.298,0.533,0.492,0.463,0.239,0.210,��쐼,3.8,��
2015/07/30,21:30,0.505,0.300,0.537,0.492,0.470,0.240,0.210,��쐼,3.1,��
2015/07/30,21:40,0.515,0.296,0.543,0.489,0.470,0.239,0.209,��쐼,4.3,��
2015/07/30,21:50,0.513,0.296,0.539,0.488,0.466,0.240,0.211,�쐼,3.5,��
2015/07/30,22:00,0.508,0.300,0.533,0.495,0.466,0.239,0.210,�쐼,2.6,��
2015/07/30,22:10,0.509,0.298,0.540,0.490,0.474,0.239,0.209,�쐼,1.6,��
2015/07/30,22:20,0.513,0.296,0.539,0.486,0.470,0.239,0.211,���쐼,1.2,��
2015/07/30,22:30,0.511,0.298,0.535,0.493,0.465,0.241,0.209,��,1.0,��
2015/07/30,22:40,0.505,0.299,0.539,0.493,0.469,0.239,0.209,��,1.9,��
2015/07/30,22:50,0.513,0.295,0.541,0.487,0.470,0.239,0.211,��,2.0,��
2015/07/30,23:00,0.511,0.299,0.536,0.490,0.466,0.241,0.211,���쐼,1.2,��
2015/07/30,23:10,0.506,0.300,0.535,0.496,0.467,0.240,0.210,-,CALM,��
2015/07/30,23:20,0.510,0.295,0.543,0.491,0.471,0.240,0.212,��,1.4,��
2015/07/30,23:30,0.516,0.298,0.539,0.487,0.468,0.239,0.210,��쐼,2.6,��
2015/07/30,23:40,0.510,0.299,0.533,0.494,0.464,0.240,0.210,���쐼,1.4,��
2015/07/30,23:50,0.507,0.297,0.538,0.493,0.473,0.240,0.211,���쐼,1.9,��
